EHI
0 0 0 0 0 0 0 0 0 0 1 3 4 5 8 11 13 14 16 18 19 21 24 26 29 32 31 28 26 26 26 25 25 23 21 20 21 22 22 21 19 17 15 13
0 0 0 0 0 0 0 0 0 0 2 3 6 9 12 15 17 17 19 20 21 22 25 27 29 31 30 28 28 29 28 27 26 24 23 22 23 22 22 21 20 19 18 17
0 0 0 0 0 0 1 1 1 1 2 4 8 12 16 18 18 18 18 20 22 23 25 24 24 26 27 26 27 28 27 26 26 24 22 22 22 22 21 21 21 21 21 19
0 0 0 0 0 0 1 3 3 3 3 5 7 10 13 15 15 14 15 17 20 22 22 19 18 21 24 24 25 26 25 25 26 24 21 19 20 21 22 21 22 22 21 19
0 0 0 0 0 0 1 3 3 3 3 4 5 7 10 11 12 12 13 15 18 20 20 18 16 18 23 24 24 26 27 27 27 25 21 18 18 19 21 20 21 21 20 19
0 0 0 0 0 0 1 1 2 2 3 5 6 8 12 14 13 12 13 15 18 20 21 19 17 19 23 24 23 24 26 29 28 24 20 18 17 17 18 18 18 18 18 18
0 0 0 0 0 0 0 1 1 1 3 5 7 10 15 17 16 14 12 14 18 21 22 21 21 22 23 23 22 21 24 28 28 24 19 16 16 15 15 16 17 16 16 17
0 0 0 0 0 0 0 1 1 2 2 3 6 10 15 17 16 15 14 14 18 21 23 23 24 25 24 24 23 22 24 27 27 22 17 14 14 14 14 15 16 16 15 14
0 0 0 0 0 0 0 1 2 2 1 0 4 10 14 15 14 13 12 13 15 19 22 23 24 24 25 25 24 24 25 25 24 20 17 16 15 14 14 15 15 14 10 7
0 0 0 0 1 1 0 0 1 1 0 0 3 10 13 12 11 10 10 10 12 15 18 20 21 20 22 23 23 23 22 22 20 18 18 19 16 14 15 14 12 10 6 3
0 0 0 1 2 2 1 1 1 1 1 1 2 7 12 12 11 12 12 10 11 12 14 15 16 17 18 20 20 19 19 18 17 16 18 19 16 12 10 9 7 5 4 3
1 1 0 1 2 2 1 2 3 3 3 2 2 5 10 11 13 16 17 14 13 12 11 12 14 14 15 16 15 15 16 16 15 15 16 17 13 8 5 3 2 2 2 2
2 1 1 1 2 1 1 2 3 4 4 3 3 5 8 12 16 19 20 18 16 14 13 12 13 13 13 12 12 13 14 14 14 13 13 12 9 6 3 1 1 1 0 1
2 1 0 1 1 0 0 1 3 4 4 4 4 4 8 12 17 19 20 19 18 16 15 15 15 14 13 12 12 12 12 12 11 10 9 8 7 6 5 4 3 2 1 0
2 1 0 0 0 0 1 2 4 5 5 5 5 5 8 13 15 16 16 15 15 14 13 14 15 15 14 13 12 11 10 9 8 8 7 6 6 6 6 5 4 4 2 1
1 1 1 2 2 2 3 5 6 6 6 5 6 7 8 10 11 11 11 10 9 9 9 9 11 13 13 13 12 11 9 8 7 6 5 5 6 6 6 6 6 5 4 3
2 2 3 5 6 6 7 7 6 6 6 5 6 6 7 7 9 10 8 6 6 7 6 6 7 10 11 12 11 10 9 7 7 6 5 5 6 6 6 6 6 5 4 4
2 3 3 5 6 7 8 6 6 5 5 5 5 5 5 6 7 8 7 5 5 7 7 6 7 8 9 9 10 9 9 8 8 6 5 5 6 6 6 6 6 4 4 4
1 1 1 2 3 4 5 4 3 3 3 4 4 4 4 4 5 6 6 6 5 6 8 8 7 7 7 8 8 8 8 8 8 7 6 6 6 6 6 6 6 4 3 3
0 0 0 0 0 1 2 1 1 2 2 2 2 2 3 3 4 5 5 5 4 5 6 6 6 7 7 7 7 7 7 7 7 7 7 6 6 6 6 6 5 4 3 3
0 0 0 0 0 0 0 0 0 1 1 1 1 1 1 2 3 3 4 4 4 3 2 3 5 6 5 5 5 5 6 6 6 6 6 6 6 5 4 4 4 3 3 3
0 0 0 0 0 0 0 1 1 1 1 0 0 0 1 2 1 1 3 4 4 2 0 1 2 2 2 1 2 3 4 5 6 6 5 5 5 5 4 4 4 4 4 4
1 1 0 1 1 1 2 2 2 2 1 0 0 0 1 1 1 1 2 3 2 0 0 0 0 0 0 0 1 2 3 4 4 3 3 4 4 5 5 5 4 4 4 4
3 2 2 2 2 3 3 3 2 2 1 0 0 0 0 0 0 0 1 1 0 0 0 0 0 0 0 1 2 3 3 3 2 1 2 3 4 4 4 4 4 4 4 4
5 5 4 3 3 3 3 1 1 1 0 0 1 0 0 0 1 2 1 1 0 0 0 0 0 0 1 2 3 3 3 2 1 1 2 3 3 3 3 3 3 3 3 3
5 6 5 3 3 3 2 0 0 0 0 0 1 1 1 2 4 4 4 2 1 0 0 0 0 0 1 1 2 2 2 2 2 3 3 3 3 3 3 3 3 3 3 3
5 6 5 4 3 3 2 1 0 0 0 0 1 2 4 5 5 5 4 3 1 0 0 0 0 0 0 1 1 1 1 2 3 3 3 3 3 3 3 3 3 3 3 3
Wind_Speed
10 7 7 9 10 10 12 11 11 7 6 4 3 4 5 6 6 6 6 7 6 6 6 6 7 6 6 5 5 5 5 4 4 3 3 2 2 2 2 1 1 0 1 1
10 10 9 11 11 11 12 12 11 9 7 1 3 5 5 6 6 6 7 7 7 6 6 7 7 6 6 6 6 5 5 4 4 4 3 3 3 2 2 1 1 1 1 1
10 9 11 14 11 11 11 10 10 10 4 4 4 5 5 5 6 6 6 6 6 6 6 6 6 6 6 6 6 5 5 4 4 4 4 3 3 2 2 2 1 1 1 1
8 8 14 7 2 6 9 7 6 4 1 2 3 4 4 4 4 5 5 5 5 5 6 6 6 6 6 6 6 5 5 4 4 4 4 3 3 2 2 2 1 1 1 1
8 12 12 6 4 4 7 6 3 4 3 3 3 6 6 4 3 4 4 4 4 5 5 5 6 6 6 6 6 5 4 4 4 4 4 3 3 3 2 2 2 2 1 1
9 11 11 3 1 2 6 7 0 2 3 4 5 6 4 4 4 3 3 3 4 4 5 5 5 5 6 6 5 5 4 4 4 3 3 3 2 2 2 2 2 2 2 1
11 11 6 2 1 5 8 0 2 1 2 4 4 2 3 4 4 4 4 4 4 4 5 5 5 5 5 5 5 4 4 4 4 3 3 3 2 2 2 2 2 2 2 2
9 12 5 4 1 2 3 4 2 1 1 2 1 2 4 4 4 4 5 5 5 5 4 4 5 5 5 4 4 4 4 4 4 3 3 2 2 2 2 2 3 2 2 2
4 2 4 3 2 3 3 2 2 1 0 1 2 3 4 4 4 4 4 4 4 5 4 4 4 4 4 4 4 4 4 4 3 3 2 2 2 2 2 2 2 1 2 2
3 2 1 1 1 1 2 2 2 1 0 0 1 3 4 4 4 4 4 4 4 4 4 4 4 4 4 4 4 4 4 3 3 3 3 2 2 2 1 1 1 1 1 2
5 2 2 2 1 1 1 1 1 1 0 0 1 2 3 3 4 3 3 3 4 4 4 4 4 4 4 4 4 4 3 3 3 3 2 2 2 0 1 0 1 2 2 2
3 0 3 1 2 2 2 1 1 0 0 0 1 2 3 3 3 3 3 3 3 4 4 4 4 4 4 3 4 3 3 3 2 2 2 2 2 2 2 1 2 2 2 3
3 4 4 3 3 3 2 1 1 0 0 0 1 2 3 3 3 3 3 3 4 4 4 4 4 4 3 3 3 3 2 2 2 1 1 2 2 2 2 3 5 5 5 4
3 4 4 3 3 2 2 1 0 1 1 1 1 2 3 3 3 3 3 3 3 4 4 4 4 3 3 3 3 3 3 2 2 2 2 2 2 2 2 2 2 3 5 7
3 4 4 3 2 2 1 2 2 1 1 1 1 2 2 3 3 2 2 3 4 4 3 3 3 2 3 3 3 3 3 2 2 1 2 2 2 2 2 2 2 2 1 4
3 3 3 2 2 2 2 2 2 1 1 1 1 1 2 2 2 2 3 3 4 3 3 3 2 2 2 3 2 3 2 1 2 2 2 2 2 2 2 2 2 2 2 1
4 3 3 2 2 1 1 0 0 1 1 1 1 1 2 2 2 2 3 3 3 3 3 2 3 2 2 2 3 2 2 2 4 4 3 2 2 2 2 2 2 2 2 1
4 3 2 2 2 1 1 0 0 1 1 1 1 1 2 2 2 2 2 2 3 2 2 2 2 2 3 3 2 3 2 2 2 3 2 2 2 2 2 2 2 3 2 0
2 2 2 2 2 2 1 1 1 1 1 1 2 2 2 2 2 2 2 3 4 4 3 3 3 4 3 2 3 3 3 2 2 2 2 1 3 3 2 2 2 2 2 2
0 1 2 3 3 2 2 1 1 1 1 1 2 2 2 2 1 1 2 3 3 2 2 2 4 3 3 1 3 3 2 2 2 2 2 2 2 2 3 3 3 2 2 2
0 1 2 2 2 2 2 2 2 2 1 2 2 2 2 2 2 2 3 3 1 1 1 3 3 2 1 0 3 3 2 2 2 2 2 2 2 2 2 3 3 3 3 3
1 0 1 1 1 1 1 1 2 2 2 2 3 2 2 2 2 2 3 2 1 2 2 3 2 1 0 2 3 3 2 2 2 2 2 2 2 2 2 3 3 3 3 3
1 1 1 1 2 2 2 2 2 2 3 3 3 3 3 2 2 2 2 1 1 2 3 1 2 4 2 4 3 2 2 2 2 2 2 2 2 2 2 3 2 2 2 2
1 1 2 2 2 2 2 2 2 2 2 3 2 2 2 2 2 2 1 1 1 2 2 2 4 4 4 3 2 1 1 2 2 2 2 1 1 2 2 2 2 2 2 2
1 1 1 1 2 2 2 2 2 2 2 2 1 1 2 1 1 0 0 1 2 3 2 3 5 4 4 2 1 1 1 1 1 2 2 2 1 1 1 2 2 2 2 2
2 2 1 2 2 2 2 2 1 1 1 1 0 0 0 1 1 1 1 2 3 2 2 2 3 4 2 1 1 1 1 1 1 2 1 1 2 1 1 1 2 2 2 2
3 2 2 2 1 1 2 2 1 1 1 1 0 0 1 1 1 1 1 2 2 2 2 2 2 2 2 2 1 1 1 1 1 1 1 2 1 1 1 1 1 1 2 2
Wind_Direction
256 265 254 245 240 229 240 259 271 276 266 244 192 167 165 167 165 164 165 170 170 169 162 167 165 164 167 171 171 168 169 174 169 174 180 182 178 185 192 208 208 202 232 247
241 242 245 248 247 242 242 250 257 260 260 215 152 155 159 170 175 177 174 171 168 166 162 166 165 167 167 170 168 166 170 172 166 171 176 181 184 187 190 200 218 206 216 245
242 232 242 242 242 242 241 246 256 258 250 152 166 167 170 177 182 184 178 174 172 171 171 170 168 167 170 171 169 169 173 171 166 170 175 184 187 179 197 215 221 228 234 252
247 234 245 251 257 254 251 248 253 260 236 191 178 161 160 177 184 184 179 178 176 175 173 172 170 166 166 164 168 173 175 175 175 179 177 177 184 189 202 218 227 244 257 280
246 243 243 219 218 237 242 237 264 253 224 185 166 169 160 157 171 184 182 179 179 179 171 164 167 164 164 166 167 171 173 180 179 185 184 184 187 196 205 214 220 223 215 223
240 252 254 218 131 252 249 226 306 260 216 190 193 215 147 139 157 159 154 156 159 159 154 154 160 161 168 168 170 174 176 179 174 184 189 193 193 204 203 211 221 227 192 195
239 247 245 40 353 208 231 230 28 286 211 212 215 310 97 125 130 134 143 143 143 149 153 152 158 164 172 170 174 174 169 170 172 177 183 182 185 195 206 215 213 228 210 198
240 245 231 63 176 249 17 27 27 16 206 217 169 119 126 127 131 133 140 140 144 149 150 150 159 168 167 168 164 163 166 166 166 178 190 167 178 194 208 220 209 210 212 223
273 311 60 59 54 39 21 5 3 347 346 162 159 149 141 137 136 134 135 139 145 147 148 153 163 174 170 160 159 164 166 168 172 178 186 186 191 195 210 214 232 225 230 237
239 182 116 83 62 28 10 359 356 8 96 194 178 161 144 141 138 136 135 139 143 148 151 151 159 171 167 158 165 171 171 176 181 188 192 181 209 213 228 241 253 246 255 257
234 225 220 156 17 347 351 354 25 46 98 209 179 172 154 147 142 139 137 141 147 153 156 157 158 161 161 160 170 181 183 189 196 193 184 185 183 176 251 229 326 281 278 266
257 216 273 298 355 330 315 331 346 340 67 75 159 169 158 146 140 141 143 143 149 157 159 157 157 156 155 162 175 192 197 201 208 197 186 203 181 169 139 191 153 194 272 295
312 316 303 296 302 314 309 313 324 304 186 116 119 152 154 142 143 143 145 152 158 161 157 155 158 156 158 168 185 204 212 208 225 220 201 213 211 225 196 181 190 193 198 215
295 290 276 276 288 304 293 267 197 134 117 116 120 135 145 143 140 143 147 154 157 155 154 155 157 156 161 168 187 208 213 186 221 231 233 233 233 247 251 253 227 207 191 190
268 272 273 282 274 261 229 200 189 163 137 142 150 155 147 145 147 149 144 146 150 161 158 157 159 160 171 182 197 214 220 214 234 249 247 252 262 263 260 262 272 270 254 171
275 259 244 234 219 214 202 194 198 186 181 192 195 163 152 153 151 154 165 162 168 172 170 184 195 186 183 193 207 223 220 197 254 253 248 250 260 268 270 267 276 284 279 280
256 240 224 219 208 207 218 240 202 220 229 231 223 181 158 157 158 164 180 175 175 180 189 198 207 200 194 201 217 229 227 196 217 245 252 261 269 272 278 281 287 291 293 29
253 265 264 237 226 224 234 292 324 274 264 259 231 190 185 192 195 192 194 189 189 203 212 206 205 211 210 216 235 249 245 233 232 251 253 258 282 279 277 280 287 291 301 233
238 229 231 218 215 223 236 241 258 261 242 234 224 221 231 230 214 210 209 201 205 211 210 184 190 226 225 226 248 242 248 247 243 243 247 221 248 265 273 279 284 288 288 290
207 202 194 193 197 211 218 215 225 220 227 235 241 237 242 240 222 220 229 231 239 237 174 171 199 217 233 223 261 255 243 240 245 241 245 252 256 269 276 281 282 281 282 284
169 172 180 191 197 204 222 230 224 220 233 242 238 237 238 233 222 218 227 231 212 144 164 179 208 213 234 229 245 258 249 243 247 247 245 253 260 274 287 295 299 300 295 291
40 102 199 208 218 238 243 243 234 233 234 232 237 239 236 234 233 232 236 258 187 146 205 211 201 111 100 254 243 255 257 261 267 264 257 262 264 268 281 290 294 300 300 299
355 324 287 255 254 266 274 268 251 245 238 235 235 235 242 258 253 244 239 223 202 177 233 227 116 131 198 231 235 244 257 262 266 262 253 258 274 280 285 284 293 304 304 300
308 314 293 276 268 258 262 273 272 260 245 238 233 236 246 240 234 241 248 138 146 194 241 114 135 165 225 235 234 244 264 269 268 273 279 272 272 283 296 299 301 308 310 309
278 263 252 251 247 250 253 256 249 234 233 225 223 222 243 244 244 267 174 158 160 193 189 143 161 192 226 240 244 262 278 312 312 292 275 277 279 274 288 302 309 310 312 318
267 265 267 266 280 280 266 258 251 236 229 216 213 190 171 123 139 158 179 170 166 187 193 164 167 194 214 219 231 242 256 225 243 263 286 282 279 285 297 315 309 306 313 325
254 244 236 254 251 258 269 271 272 260 236 210 221 191 166 151 150 160 182 182 174 182 186 181 181 191 197 199 198 203 215 226 245 265 273 271 274 290 310 286 297 313 318 326